Weather History for KUOX - December, 2012

Change the Weather History Date:

Thursday, December 13, 2012

  Actual Average Record
Temperature  
Mean Temperature 40 °F -  
Max Temperature 57 °F 53 °F 72 °F (1948)
Min Temperature 23 °F 33 °F 0 °F (1962)
Degree Days  
Heating Degree Days 25    
Moisture  
Dew Point 24 °F    
Average Humidity 66    
Maximum Humidity 100    
Minimum Humidity 20    
Precipitation  
Precipitation 0.00 in - - ()
Sea Level Pressure  
Sea Level Pressure 30.34 in    
Wind  
Wind Speed 0 mph (ENE)    
Max Wind Speed 5 mph    
Max Gust Speed -    
Visibility 8 miles    
Events      
Averages and records for this station are not official NWS values.
T = Trace of Precipitation, MM = Missing Value Source: NWS Daily Summary

Daily Weather History Graph

Daily Weather History Graph

Search for Another Location

Airport or City:

Trip Planner

Search our weather history database for the weather conditions in past years. The results will help you decide how hot, cold, wet, or windy it might be!

Date:

Astronomy

Dec. 13, 2012 Rise Set
Actual Time 6:56 AM CST 4:49 PM CST
Civil Twilight 6:28 AM CST 5:16 PM CST
Nautical Twilight 5:56 AM CST 5:48 PM CST
Astronomical Twilight 5:26 AM CST 6:18 PM CST
Moon 7:05 AM CST (12/13) 5:30 PM CST (12/13)
Length of Visible Light 10h 48m
Length of Day
9h 52m
New Moon, 0% of the Moon is Illuminated
Dec 13
New Moon
Dec 19
First Quarter
Dec 28
Full
Jan 4
Last Quarter
Jan 11
New

Hourly Weather History & Observations

Time (CST) Temp. Dew Point Humidity Pressure Visibility Wind Dir Wind Speed Gust Speed Precip Events Conditions
12:15 AM 26.6 °F 23.0 °F 86% 30.34 in 9.0 mi Calm Calm - N/A   Clear
12:35 AM 26.6 °F 23.0 °F 86% 30.33 in 10.0 mi Calm Calm - N/A   Clear
12:55 AM 26.6 °F 23.0 °F 86% 30.34 in 10.0 mi Calm Calm - N/A   Clear
1:15 AM 24.8 °F 23.0 °F 93% 30.34 in 10.0 mi Calm Calm - N/A   Clear
1:35 AM 26.6 °F 23.0 °F 86% 30.35 in 10.0 mi Calm Calm - N/A   Clear
1:55 AM 26.6 °F 23.0 °F 86% 30.36 in 9.0 mi Calm Calm - N/A   Clear
2:15 AM 24.8 °F 21.2 °F 86% 30.36 in 10.0 mi Calm Calm - N/A   Clear
2:35 AM 24.8 °F 23.0 °F 93% 30.37 in 10.0 mi Calm Calm - N/A   Clear
2:55 AM 24.8 °F 23.0 °F 93% 30.36 in 10.0 mi Calm Calm - N/A   Clear
3:15 AM 24.8 °F 23.0 °F 93% 30.37 in 10.0 mi Calm Calm - N/A   Clear
3:55 AM 23.0 °F 21.2 °F 93% 30.37 in 10.0 mi Calm Calm - N/A   Clear
4:15 AM 23.0 °F 23.0 °F 100% 30.37 in 10.0 mi North - - N/A   Clear
4:55 AM 23.0 °F 21.2 °F 93% 30.36 in 9.0 mi Calm Calm - N/A   Clear
5:15 AM 23.0 °F 21.2 °F 93% 30.36 in 10.0 mi Calm Calm - N/A   Clear
5:55 AM 23.0 °F 21.2 °F 93% 30.36 in 10.0 mi Calm Calm - N/A   Clear
6:15 AM 23.0 °F 21.2 °F 93% 30.37 in 10.0 mi Calm Calm - N/A   Clear
6:35 AM 23.0 °F 19.4 °F 86% 30.38 in 10.0 mi Calm Calm - N/A   Clear
6:55 AM 23.0 °F 19.4 °F 86% 30.39 in 8.0 mi Calm Calm - N/A   Clear
7:15 AM 23.0 °F 21.2 °F 93% 30.40 in 7.0 mi Calm Calm - N/A   Clear
7:35 AM 24.8 °F 23.0 °F 93% 30.40 in 8.0 mi Calm Calm - N/A   Clear
7:55 AM 26.6 °F 23.0 °F 86% 30.40 in 9.0 mi Calm Calm - N/A   Clear
8:15 AM 28.4 °F 26.6 °F 93% 30.41 in 9.0 mi Calm Calm - N/A   Clear
8:35 AM 32.0 °F 28.4 °F 87% 30.41 in 8.0 mi Calm Calm - N/A   Clear
8:55 AM 37.4 °F 26.6 °F 65% 30.41 in 9.0 mi Calm Calm - N/A   Clear
9:15 AM 41.0 °F 28.4 °F 61% 30.42 in 9.0 mi Calm Calm - N/A   Clear
9:35 AM 42.8 °F 26.6 °F 53% 30.41 in 9.0 mi Calm Calm - N/A   Clear
9:55 AM 44.6 °F 26.6 °F 49% 30.42 in 9.0 mi Calm Calm - N/A   Clear
10:15 AM 46.4 °F 24.8 °F 43% 30.41 in 8.0 mi Calm Calm - N/A   Clear
10:35 AM 48.2 °F 24.8 °F 40% 30.41 in 9.0 mi Calm Calm - N/A   Clear
10:55 AM 50.0 °F 24.8 °F 37% 30.39 in 8.0 mi Calm Calm - N/A   Clear
11:15 AM 50.0 °F 24.8 °F 37% 30.38 in 10.0 mi Calm Calm - N/A   Clear
11:35 AM 51.8 °F 23.0 °F 33% 30.37 in 9.0 mi Calm Calm - N/A   Clear
11:55 AM 53.6 °F 19.4 °F 26% 30.36 in 9.0 mi Calm Calm - N/A   Clear
12:15 PM 53.6 °F 19.4 °F 26% 30.35 in 9.0 mi ENE 3.5 mph - N/A   Clear
12:35 PM 55.4 °F 19.4 °F 25% 30.34 in 10.0 mi Calm Calm - N/A   Clear
12:55 PM 55.4 °F 19.4 °F 25% 30.33 in 9.0 mi Calm Calm - N/A   Clear
1:15 PM 57.2 °F 19.4 °F 23% 30.32 in 5.0 mi ENE 4.6 mph - N/A   Haze
1:35 PM 57.2 °F 17.6 °F 21% 30.32 in 8.0 mi Calm Calm - N/A   Clear
1:55 PM 57.2 °F 15.8 °F 20% 30.31 in 9.0 mi Calm Calm - N/A   Clear
2:15 PM 57.2 °F 17.6 °F 21% 30.30 in 10.0 mi Calm Calm - N/A   Clear
2:35 PM 57.2 °F 19.4 °F 23% 30.29 in 8.0 mi Calm Calm - N/A   Clear
2:55 PM 57.2 °F 19.4 °F 23% 30.29 in 9.0 mi Calm Calm - N/A   Clear
3:15 PM 57.2 °F 19.4 °F 23% 30.28 in 5.0 mi Calm Calm - N/A   Haze
3:35 PM 57.2 °F 23.0 °F 27% 30.28 in 5.0 mi Calm Calm - N/A   Haze
3:55 PM 57.2 °F 23.0 °F 27% 30.28 in 5.0 mi Calm Calm - N/A   Haze
4:15 PM 55.4 °F 23.0 °F 29% 30.28 in 5.0 mi Calm Calm - N/A   Haze
5:15 PM 44.6 °F 26.6 °F 49% 30.30 in 9.0 mi Calm Calm - N/A   Clear
5:55 PM 39.2 °F 28.4 °F 65% 30.31 in 7.0 mi Calm Calm - N/A   Clear
6:15 PM 39.2 °F 26.6 °F 61% 30.31 in 6.0 mi Calm Calm - N/A   Haze
6:35 PM 37.4 °F 28.4 °F 70% 30.31 in 7.0 mi Calm Calm - N/A   Clear
6:55 PM 35.6 °F 28.4 °F 75% 30.31 in 6.0 mi Calm Calm - N/A   Haze
7:15 PM 35.6 °F 28.4 °F 75% 30.31 in 7.0 mi Calm Calm - N/A   Clear
7:35 PM 35.6 °F 28.4 °F 75% 30.31 in 7.0 mi Calm Calm - N/A   Clear
7:55 PM 35.6 °F 26.6 °F 70% 30.31 in 6.0 mi Calm Calm - N/A   Haze
8:15 PM 33.8 °F 26.6 °F 75% 30.30 in 7.0 mi Calm Calm - N/A   Clear
8:55 PM 32.0 °F 28.4 °F 87% 30.31 in 7.0 mi Calm Calm - N/A   Clear
9:15 PM 32.0 °F 28.4 °F 87% 30.31 in 5.0 mi Calm Calm - N/A   Haze
9:35 PM 32.0 °F 26.6 °F 80% 30.32 in 5.0 mi Calm Calm - N/A   Haze
9:55 PM 32.0 °F 28.4 °F 87% 30.32 in 5.0 mi Calm Calm - N/A   Clear
10:15 PM 32.0 °F 26.6 °F 80% 30.32 in 5.0 mi Calm Calm - N/A   Clear
10:35 PM 32.0 °F 26.6 °F 80% 30.33 in 5.0 mi Calm Calm - N/A   Clear
10:55 PM 30.2 °F 26.6 °F 86% 30.33 in 6.0 mi Calm Calm - N/A   Clear
11:15 PM 28.4 °F 26.6 °F 93% 30.33 in 7.0 mi Calm Calm - N/A   Clear
11:35 PM 32.0 °F 26.6 °F 80% 30.32 in 7.0 mi Calm Calm - N/A   Clear
11:55 PM 28.4 °F 26.6 °F 93% 30.31 in 8.0 mi Calm Calm - N/A   Clear